User: anonymous   Login
Location: Phoenix
(33.4480°N, 112.0730°W)
Time: 17:17:37
(UTC-07:00)
Language:

Hubble Space Telescope - Orbit

View from above orbital plane
View from above orbital plane
View from above satellite
View from above satellite

Ground track
Ground track

The orbit data is extracted from the following two-line orbital elements,

1 20580U 90037B   16267.93369213 +.00000885 +00000-0 +44121-4 0  9999
2 20580 028.4706 326.5592 0002722 184.6445 170.3179 15.08506999249949
Epoch (UTC): 23 September 2016 22:24:31
Eccentricity: 0.0002722
inclination: 28.4706°
perigee height: 539 km
apogee height: 542 km
right ascension of ascending node: 326.5592°
argument of perigee: 184.6445°
revolutions per day: 15.08506999
mean anomaly at epoch: 170.3179°
orbit number at epoch: 24994

The dashed part of the orbit path shows where the satellite is in the earth's shadow,  

DLR